Torna al catalogo

STARLINK-2109

AttivoComunicazioniVLEO
NORAD 47388·PAYLOAD·🇺🇸 United States

Lanciato Jan 20, 2021 da Cape Canaveral Space Force Station

Loading…

Prossimi Passaggi (prossime 24 ore)

TLE

AggiornatoSource: CelesTrak SupGP

Epoca: Sep 14, 2026, 21:34 UTC

1 47388C 21005AR  26257.89909722  .00069068  00000+0  20214-2 0  2572
2 47388  53.1571 265.2455 0004490  43.8471 341.1597 15.34644544    18

Traccia STARLINK-2109 in tempo reale con AllMySat

Download on the App Store